Location: *
(24.1434°N, 56.8729°E)
Time: 07:28:11
(UTC+00:00)

USA 234 - Pass Details

Date: 09 April 2020
Orbit: 1102 x 1106 km, 123.0° (Epoch: 14 May)

Event Time Altitude Azimuth Distance (km) Brightness Sun altitude
Rises 16:22:03 0° 37° (NE) 3,917 6.0 -25.0°
Reaches altitude 10° 16:24:32 10° 36° (NE) 2,958 5.4 -25.5°
Maximum altitude 16:31:04 79° 311° (NW) 1,124 3.3 -26.9°
Drops below altitude 10° 16:37:35 10° 225° (SW) 2,954 5.7 -28.3°
Sets 16:40:03 0° 224° (SW) 3,910 6.4 -28.8°
